User: anonymous   Login
Location: Unspecified
(0.0000°N, 0.0000°E)
Time: 14:05:47
(UTC+00:00)
Language:

Aussat K3 - Orbit

View from above orbital plane
View from above orbital plane
View from above satellite
View from above satellite

Ground track
Ground track

The orbit data is extracted from the following two-line orbital elements,

1 18350U 87078A   18288.44980019 -.00000176  00000-0  00000+0 0  9993
2 18350  14.8190  13.3802 0009309 299.7149  56.3291  0.98908448112810
Epoch (UTC): 15 October 2018 10:47:42
Eccentricity: 0.0009309
inclination: 14.8190°
perigee height: 36133 km
apogee height: 36212 km
right ascension of ascending node: 13.3802°
argument of perigee: 299.7149°
revolutions per day: 0.98908448
mean anomaly at epoch: 56.3291°
orbit number at epoch: 11281

The dashed part of the orbit path shows where the satellite is in the earth's shadow,  

DLR